Tracking 25710 objects as of 4-Jul-2022
HD Live streaming from Space Station
objects crossing your sky now

STARLINK-2502

Track STARLINK-2502 now!
10-day predictions
STARLINK-2502 is classified as:


NORAD ID: 48327
Int'l Code: 2021-036BD
Perigee: 553.3 km
Apogee: 555.5 km
Inclination: 53.1 °
Period: 95.6 minutes
Semi major axis: 6925 km
RCS: Unknown
Launch date: April 29, 2021
Source: United States (US)
Launch site: AIR FORCE EASTERN TEST RANGE (AFETR)
aabbcc
Your satellite tracking list
Your tracking list is empty




NASA's NSSDC Master Catalog

Two Line Element Set (TLE):
1 48327U 21036BD  22185.23878203 -.00002508  00000-0 -14958-3 0  9994
2 48327  53.0573  17.0942 0001594  65.0379 295.0775 15.06390917 65390
Source of the keplerian elements: AFSPC